Location: Buchdorf
(48.7842°N, 10.8275°E)
Time: 05:25:24
(UTC+00:00)

SL-08 RB Rocket - Pass Details

Date: 09 April 2020
Orbit: 646 x 685 km, 97.8° (Epoch: 29 May)

Event Time Altitude Azimuth Distance (km) Brightness Sun altitude
Exits shadow 18:56:19 - 162° (SSE) 2,871 6.6 -9.6°
Reaches altitude 10° 18:58:13 10° 161° (SSE) 2,086 5.9 -9.9°
Maximum altitude 19:02:47 81° 75° (ENE) 686 3.7 -10.6°
Drops below altitude 10° 19:07:27 10° 348° (NNW) 2,126 6.9 -11.3°
Sets 19:09:42 0° 348° (NNW) 3,050 7.7 -11.6°
